[[{"header":{"parameterUnit":"m.s-1","parameterCategory":1,"la1":30.2991,"la2":30.254,"lo1":-89.0895,"lo2":-89.0444,"dy":0.0017,"dx":0.0017,"nx":28,"ny":28,"refTime":"2024-03-16T09:00:00:Z","depth":0,"parameterNumber":2,"parameterNumberName":"U-component_of_WINDS"},"data":[0,0,0,0,0,0,0,0,0,0,0,0,0,0,0,0,0,0,0,0,0,0,0,0,0,0,0,0,0,0,0,0,0,0,0,0,0,0,0,0,0,0,0,0,0,0,0,0,0,0,0,0,0,0,0,0,0,0,0.185,0.1849,0,0.1729,0.1728,0.1726,0.1754,0.1756,0.1758,0.1761,0.1626,0.162,0.1615,0,0,0,0,0,0,0,0,0,0,0,0,0,0.2094,0.2089,0.185,0.1849,0.1847,0.1729,0.1728,0.1726,0.1753,0.1756,0.1759,0.1762,0.1628,0.1621,0.1614,0,0,0,0,0,0,0,0,0,0,0,0,0,0.1982,0.2088,0.1851,0.1847,0.1846,0.173,0.1728,0.1725,0.1753,0.1756,0.176,0.1763,0.163,0.1622,0.1613,0.149,0,0,0.1587,0.1583,0,0,0,0,0,0,0,0,0.1988,0.1973,0.1849,0.1847,0.1845,0.176,0.1764,0.1646,0.1752,0.1788,0.1761,0.1765,0.1667,0.1656,0.1625,0.1484,0.1478,0.1586,0.1581,0.1577,0.1575,0,0,0,0,0,0,0,0.1996,0.1978,0.1802,0.1847,0.1845,0.1848,0.1836,0.1742,0.1709,0.1785,0.1787,0.1772,0.1667,0.1633,0.1622,0.1476,0.1586,0.1579,0.1573,0.157,0.1222,0.1218,0,0,0,0,0,0,0.2007,0.1984,0.1806,0.1798,0.1927,0.184,0.1827,0.1784,0.171,0.1702,0.1769,0.1774,0.1646,0.1632,0.1617,0.1465,0.1577,0.1569,0.1564,0.1226,0.1221,0.1217,0,0,0,0,0,0,0.2012,0.1991,0.1811,0.1892,0.1869,0.1833,0.1784,0.178,0.1746,0.1699,0.1692,0.1742,0.1648,0.1629,0.1521,0.1461,0.1565,0.1557,0.1231,0.1225,0.1219,0.1161,0,0,0,0,0,0,0.2019,0.1992,0.1948,0.1891,0.1865,0.172,0.178,0.1775,0.1733,0.1737,0.1671,0.1663,0.165,0.1534,0.1513,0.1451,0.1551,0.1236,0.1228,0.1221,0.1168,0.1154,0.1141,0,0,0,0,0,0.2027,0.1935,0.1946,0.1924,0.1809,0.1717,0.1701,0.1691,0.1728,0.1681,0.165,0.1665,0.1472,0.1523,0.1499,0.1433,0.124,0.1231,0.1222,0.1174,0.1157,0.1142,0,0,0,0,0,0,0.1983,0.1928,0.1939,0.1826,0.1776,0.1722,0.1662,0.1673,0.1609,0.1616,0.1602,0.1586,0.1475,0.1444,0.1502,0.1308,0.136,0.1346,0.1332,0.1315,0.1302,0.131,0.1543,0,0,0,0,0,0.1961,0.1894,0.1848,0.1753,0.1727,0.1699,0.1658,0.1654,0.1601,0.1579,0.154,0.1484,0.141,0.1361,0.1291,0.1165,0.1147,0.1107,0.1094,0.1083,0.107,0.0996,0.0976,0.1187,0.1187,0.1187,0,0,0.1913,0.1875,0.1833,0.1743,0.1704,0.163,0.1681,0.1602,0.1546,0.1566,0.1461,0.143,0.1366,0.1247,0.1193,0.1218,0.1008,0.1072,0.1063,0.1056,0.0984,0.0964,0.0946,0.1181,0.1182,0.1183,0,0,0.1788,0.1755,0.167,0.163,0.1571,0.1552,0.1532,0.1475,0.1456,0.1352,0.1363,0.1295,0.1169,0.1122,0.1082,0.0936,0.0946,0.0913,0.0842,0.077,0.0753,0.0738,0.0682,0.0662,0.0901,0.0901,0.0901,0,0.1735,0.1629,0.1624,0.1543,0.1501,0.1519,0.1429,0.139,0.1309,0.1278,0.1308,0.1148,0.1107,0.0975,0.0939,0.0908,0.0879,0.092,0.0757,0.0742,0.0728,0.0673,0.0653,0.0897,0.0897,0.0898,0.0898,0,0.1565,0.149,0.1428,0.1353,0.1304,0.1219,0.1197,0.1147,0.1147,0.1124,0.1014,0.0966,0.0884,0.0853,0.0851,0.0719,0.0735,0.0761,0.0813,0.0704,0.0652,0.0632,0.0891,0.0893,0.0894,0.0895,0,0,0.1407,0.133,0.1307,0.1271,0.1206,0.1147,0.1061,0.0984,0.0939,0.0883,0.0807,0.07,0.0722,0.0676,0.0669,0.0606,0.0488,0.0639,0.0637,0.0609,0.0334,0.0312,0.0288,0.0496,0.0493,0.0489,0.0338,0,0.1274,0.1127,0.1118,0.0983,0.0911,0.0925,0.085,0.0799,0.0775,0.0707,0.0679,0.0601,0.064,0.0612,0.0551,0.0516,0.0432,0.0527,0.042,0.0416,0.0432,0.0262,0.024,0.0099,0.0318,0.0315,0.0312,0,0.1098,0.1038,0.0896,0.0839,0.0808,0.0741,0.0668,0.0605,0.0546,0.0532,0.048,0.0481,0.0388,0.0445,0.0314,0.0378,0.0334,0.031,0.0304,0.029,0.0355,0.024,0.0054,0.0032,0.0281,0.0284,0.0286,0,0.0992,0.0876,0.0775,0.0745,0.0677,0.0628,0.0596,0.0542,0.0495,0.0429,0.0398,0.0321,0.0278,0.0217,0.0195,0.024,0.0062,0.0119,0.0043,0.0043,0.0002,0.0005,-0.0197,-0.0019,-0.0019,-0.0019,-0.0018,0,0.0842,0.0753,0.0727,0.0664,0.0564,0.0553,0.0453,0.0423,0.0374,0.0302,0.031,0.0241,0.0219,0.0145,0.0127,0.0018,-0.0001,-0.0018,-0.0023,-0.0021,-0.002,-0.0053,-0.0046,-0.0024,-0.0023,-0.0022,-0.0021,0,0.0706,0.0686,0.0576,0.052,0.0504,0.0432,0.0382,0.0319,0.0296,0.0205,0.0183,0.0145,0.0058,0.0031,-0.0074,-0.0086,-0.0216,-0.0209,-0.0195,-0.0197,-0.0273,-0.0267,-0.0507,-0.0541,-0.0337,-0.0338,-0.034,0,0.061,0.0542,0.0479,0.0433,0.0401,0.0327,0.0279,0.0265,0.0214,0.014,0.0085,0.0,-0.0068,-0.0209,-0.0249,-0.033,-0.0329,-0.0407,-0.0342,-0.0339,-0.0336,-0.0333,-0.0343,-0.0421,-0.0423,-0.0425,-0.0426,0,0.0439,0.0432,0.0365,0.0293,0.0236,0.0178,0.0122,0.0083,0.006,0.0002,-0.0085,-0.0138,-0.0245,-0.0332,-0.0415,-0.0453,-0.0447,-0.0446,-0.0469,-0.047,-0.0461,-0.0472,-0.0233,-0.0441,-0.044,-0.0439,-0.0438,-0.0437,0.0316,0.0256,0.0201,0.0125,0.0082,0.0029,-0.0034,-0.0064,-0.0136,-0.0222,-0.0227,-0.0322,-0.0384,-0.0495,-0.0537,-0.0615,-0.0593,-0.0625,-0.0634,-0.0643,-0.0651,-0.0445,-0.063,-0.0629,-0.0629,-0.0629,-0.0629,0,0.0142,0.0108,0.0039,-0.0039,-0.0101,-0.0084,-0.0146,-0.02,-0.0283,-0.0339,-0.0406,-0.0509,-0.0594,-0.064,-0.0726,-0.0781,-0.078,-0.0803,-0.0802,-0.0812,-0.0663,-0.0637,-0.0802,-0.0802,-0.0802,-0.0802,-0.0802,-0.0802,0.0044,-0.0059,-0.0073,-0.02,-0.0235,-0.0326,-0.0363,-0.0415,-0.046,-0.0573,-0.0642,-0.0671,-0.0725,-0.0815,-0.0894,-0.0906,-0.094,-0.0967,-0.0977,-0.0839,-0.0821,-0.0804,-0.078,-0.0973,-0.0973,-0.1119,-0.1121,-0.1122]},{"header":{"parameterUnit":"m.s-1","parameterCategory":1,"la1":30.2991,"la2":30.254,"lo1":-89.0895,"lo2":-89.0444,"dy":0.0017,"dx":0.0017,"nx":28,"ny":28,"refTime":"2024-03-16T09:00:00:Z","depth":0,"parameterNumber":3,"parameterNumberName":"V-component_of_WINDS"},"data":[0,0,0,0,0,0,0,0,0,0,0,0,0,0,0,0,0,0,0,0,0,0,0,0,0,0,0,0,0,0,0,0,0,0,0,0,0,0,0,0,0,0,0,0,0,0,0,0,0,0,0,0,0,0,0,0,0,0,-1.5345,-1.5344,0,-1.5319,-1.5319,-1.5319,-1.532,-1.532,-1.532,-1.5321,-1.5292,-1.5291,-1.529,0,0,0,0,0,0,0,0,0,0,0,0,0,-1.5393,-1.5392,-1.5345,-1.5344,-1.5344,-1.5319,-1.5319,-1.5319,-1.532,-1.532,-1.532,-1.5321,-1.5292,-1.5291,-1.529,0,0,0,0,0,0,0,0,0,0,0,0,0,-1.537,-1.5391,-1.5345,-1.5342,-1.5341,-1.5319,-1.5319,-1.5318,-1.5319,-1.532,-1.5321,-1.5321,-1.5293,-1.5291,-1.529,-1.5268,0,0,-1.5285,-1.5284,0,0,0,0,0,0,0,0,-1.5371,-1.5368,-1.5342,-1.5342,-1.5341,-1.5323,-1.5325,-1.5302,-1.5319,-1.5328,-1.5321,-1.5321,-1.5302,-1.5299,-1.5293,-1.5267,-1.5266,-1.5284,-1.5283,-1.5283,-1.5282,0,0,0,0,0,0,0,-1.5373,-1.5369,-1.5334,-1.5342,-1.5341,-1.5341,-1.5338,-1.5321,-1.5312,-1.5327,-1.5327,-1.5324,-1.5302,-1.5295,-1.5293,-1.5265,-1.5284,-1.5283,-1.5282,-1.5281,-1.5222,-1.5221,0,0,0,0,0,0,-1.5375,-1.537,-1.5335,-1.5334,-1.5358,-1.534,-1.5337,-1.5328,-1.5312,-1.531,-1.5324,-1.5324,-1.5298,-1.5295,-1.5292,-1.5267,-1.5283,-1.5281,-1.528,-1.5222,-1.5222,-1.5221,0,0,0,0,0,0,-1.5376,-1.5372,-1.5336,-1.5352,-1.5348,-1.5338,-1.5329,-1.5328,-1.5321,-1.531,-1.5308,-1.5319,-1.5298,-1.5294,-1.5275,-1.5266,-1.528,-1.5279,-1.5223,-1.5222,-1.5221,-1.5216,0,0,0,0,0,0,-1.5378,-1.5372,-1.5364,-1.5352,-1.5347,-1.532,-1.5328,-1.5327,-1.5318,-1.5319,-1.5304,-1.5303,-1.5298,-1.5277,-1.5273,-1.5264,-1.5278,-1.5224,-1.5223,-1.5222,-1.5217,-1.5215,-1.5213,0,0,0,0,0,-1.5379,-1.5363,-1.5364,-1.536,-1.5337,-1.532,-1.5316,-1.5312,-1.5318,-1.531,-1.5303,-1.5303,-1.5267,-1.5275,-1.5271,-1.526,-1.5224,-1.5223,-1.5222,-1.5218,-1.5215,-1.5213,0,0,0,0,0,0,-1.5373,-1.5361,-1.5362,-1.5342,-1.5332,-1.532,-1.5309,-1.531,-1.5297,-1.5298,-1.5293,-1.529,-1.527,-1.5263,-1.5272,-1.524,-1.5246,-1.5244,-1.5245,-1.5243,-1.5241,-1.5243,-1.5276,0,0,0,0,0,-1.537,-1.5358,-1.5348,-1.533,-1.5326,-1.5318,-1.5311,-1.5309,-1.5298,-1.5293,-1.5285,-1.5273,-1.526,-1.5251,-1.5238,-1.5216,-1.5213,-1.5207,-1.5205,-1.5204,-1.5202,-1.5191,-1.5188,-1.5217,-1.5217,-1.5217,0,0,-1.5362,-1.5354,-1.5346,-1.5329,-1.5321,-1.5308,-1.5315,-1.53,-1.5291,-1.5291,-1.5272,-1.5266,-1.5253,-1.5233,-1.5223,-1.5226,-1.5193,-1.5202,-1.5201,-1.52,-1.5189,-1.5186,-1.5184,-1.5216,-1.5216,-1.5216,0,0,-1.5342,-1.5334,-1.532,-1.5312,-1.5301,-1.5296,-1.5293,-1.5281,-1.5277,-1.5259,-1.5259,-1.5247,-1.5224,-1.5215,-1.5207,-1.5185,-1.5186,-1.5181,-1.5172,-1.5161,-1.5159,-1.5157,-1.5149,-1.5147,-1.5179,-1.5179,-1.5179,0,-1.5333,-1.5314,-1.5312,-1.5298,-1.5291,-1.5291,-1.5277,-1.5269,-1.5253,-1.5248,-1.5252,-1.5224,-1.5215,-1.5193,-1.5188,-1.5182,-1.5178,-1.5183,-1.516,-1.5157,-1.5156,-1.5148,-1.5146,-1.5179,-1.5179,-1.5179,-1.5179,0,-1.5305,-1.5292,-1.5282,-1.5268,-1.5259,-1.5245,-1.524,-1.5231,-1.523,-1.5226,-1.5207,-1.5198,-1.5183,-1.5178,-1.5176,-1.5156,-1.5158,-1.5161,-1.5167,-1.5152,-1.5146,-1.5143,-1.5178,-1.5178,-1.5178,-1.5179,0,0,-1.5279,-1.5265,-1.5262,-1.5256,-1.5244,-1.5234,-1.522,-1.5207,-1.52,-1.5189,-1.5177,-1.5158,-1.5161,-1.5153,-1.515,-1.5141,-1.5125,-1.5145,-1.5144,-1.5142,-1.5103,-1.5101,-1.5098,-1.5125,-1.5125,-1.5124,-1.5104,0,-1.5257,-1.5233,-1.5231,-1.5209,-1.5198,-1.5199,-1.5187,-1.5178,-1.5174,-1.5163,-1.5158,-1.5145,-1.5149,-1.5144,-1.5135,-1.5129,-1.5117,-1.513,-1.5114,-1.5113,-1.5117,-1.5094,-1.5092,-1.5073,-1.5102,-1.5101,-1.5101,0,-1.5228,-1.5219,-1.5196,-1.5188,-1.5182,-1.5172,-1.516,-1.515,-1.514,-1.5138,-1.5129,-1.5128,-1.5114,-1.5122,-1.5102,-1.5111,-1.5104,-1.51,-1.5099,-1.5097,-1.5106,-1.5092,-1.5067,-1.5065,-1.5096,-1.5097,-1.5097,0,-1.5212,-1.5193,-1.5178,-1.5173,-1.5162,-1.5155,-1.515,-1.5141,-1.5133,-1.5123,-1.5118,-1.5106,-1.5099,-1.509,-1.5086,-1.5092,-1.5066,-1.5074,-1.5064,-1.5064,-1.5058,-1.5058,-1.5032,-1.5054,-1.5054,-1.5054,-1.5054,0,-1.5188,-1.5174,-1.5171,-1.5161,-1.5146,-1.5144,-1.5129,-1.5124,-1.5116,-1.5106,-1.5106,-1.5096,-1.5091,-1.508,-1.5077,-1.5061,-1.5058,-1.5056,-1.5055,-1.5056,-1.5056,-1.5051,-1.5052,-1.5053,-1.5053,-1.5053,-1.5053,0,-1.5167,-1.5164,-1.5147,-1.5139,-1.5137,-1.5126,-1.5119,-1.5109,-1.5106,-1.5092,-1.5089,-1.5083,-1.507,-1.5066,-1.505,-1.5048,-1.503,-1.503,-1.5033,-1.5033,-1.5024,-1.5025,-1.4993,-1.4989,-1.5014,-1.5013,-1.5013,0,-1.5152,-1.5142,-1.5133,-1.5126,-1.5121,-1.5111,-1.5104,-1.5102,-1.5094,-1.5084,-1.5076,-1.5064,-1.5054,-1.5034,-1.5027,-1.5016,-1.5016,-1.5006,-1.5014,-1.5015,-1.5016,-1.5017,-1.5016,-1.5004,-1.5003,-1.5003,-1.5003,0,-1.5125,-1.5125,-1.5115,-1.5105,-1.5098,-1.5089,-1.5081,-1.5076,-1.5073,-1.5064,-1.5052,-1.5045,-1.503,-1.5018,-1.5006,-1.5001,-1.5001,-1.5001,-1.4998,-1.4998,-1.5001,-1.5,-1.5029,-1.5001,-1.5001,-1.5002,-1.5002,-1.5002,-1.5107,-1.5098,-1.5091,-1.5081,-1.5075,-1.5068,-1.5059,-1.5055,-1.5046,-1.5034,-1.5033,-1.502,-1.5012,-1.4997,-1.4991,-1.4981,-1.4983,-1.4979,-1.4978,-1.4977,-1.4976,-1.5003,-1.4978,-1.4978,-1.4978,-1.4979,-1.4979,0,-1.508,-1.5076,-1.5067,-1.5057,-1.5049,-1.5052,-1.5044,-1.5036,-1.5026,-1.5018,-1.5009,-1.4996,-1.4985,-1.4978,-1.4967,-1.496,-1.496,-1.4957,-1.4958,-1.4957,-1.4974,-1.4978,-1.4958,-1.4958,-1.4958,-1.4958,-1.4958,-1.4958,-1.5066,-1.5052,-1.5051,-1.5034,-1.503,-1.5018,-1.5013,-1.5007,-1.5001,-1.4987,-1.4978,-1.4975,-1.4968,-1.4957,-1.4947,-1.4945,-1.4941,-1.4938,-1.4937,-1.4953,-1.4955,-1.4957,-1.4961,-1.4937,-1.4937,-1.492,-1.4919,-1.4919]}]]